CW4740 Weather Reports


Display with metric or nautical units.
time (UTC)temp
F
wind
direction
speed
MPH
gust
MPH
rain 1hr
in
rain 24hr
in
rain mn
in
humidity
%
barometer
mb
20260504013638 75 82 3.0 8.0 0.00 0.31 0.31 90 1015.6
20260504013215 75 74 2.0 5.0 0.00 0.31 0.31 90 1015.6
20260504012631 75 66 2.0 5.0 0.00 0.31 0.31 90 1015.5
20260504012128 75 63 1.0 10.0 0.00 0.31 0.31 90 1015.6
20260504011707 75 13 2.0 10.0 0.00 0.31 0.31 90 1015.6
20260504011223 75 22 3.0 6.0 0.00 0.31 0.31 90 1015.5
20260504010738 75 5 2.0 8.0 0.00 0.31 0.31 90 1015.5
20260504010656 75 5 2.0 8.0 0.00 0.31 0.31 90 1015.5
20260504010132 74 5 2.0 8.0 0.00 0.31 0.31 90 1015.5
20260504005700 74 12 3.0 6.0 0.00 0.31 0.31 90 1015.4
20260504005136 74 13 2.0 9.0 0.00 0.31 0.31 90 1015.3
20260504004715 74 37 2.0 9.0 0.00 0.31 0.31 89 1015.3
20260504004131 74 60 0.0 9.0 0.00 0.31 0.31 89 1015.2
20260504003628 74 5 3.0 9.0 0.00 0.31 0.31 89 1015.1
20260504003145 74 21 3.0 7.0 0.00 0.31 0.31 89 1015.0
20260504002642 74 70 2.0 9.0 0.00 0.31 0.31 89 1015.0
20260504002200 74 86 4.0 10.0 0.00 0.31 0.31 89 1014.7
20260504001637 74 24 4.0 11.0 0.00 0.31 0.31 90 1014.7
20260504001214 74 355 5.0 11.0 0.00 0.31 0.31 90 1014.8
20260504000630 74 46 3.0 10.0 0.00 0.31 0.31 90 1014.8
20260504000128 74 40 2.0 8.0 0.00 0.31 0.31 90 1014.7
20260503235637 74 32 2.0 10.0 0.00 0.31 0.31 91 1014.7
20260503235235 74 66 4.0 10.0 0.00 0.31 0.31 91 1014.7
20260503235152 74 66 4.0 10.0 0.00 0.31 0.31 91 1014.7
20260503234629 74 30 5.0 11.0 0.00 0.31 0.31 91 1014.6
20260503234207 74 24 6.0 11.0 0.00 0.31 0.31 91 1014.5
20260503233744 74 339 4.0 11.0 0.00 0.31 0.31 92 1014.5
20260503233701 74 339 4.0 11.0 0.00 0.31 0.31 92 1014.5
20260503233140 74 56 3.0 9.0 0.00 0.31 0.31 92 1014.6
20260503232639 74 33 4.0 13.0 0.00 0.31 0.31 92 1014.7
20260503232217 74 42 5.0 13.0 0.00 0.31 0.31 92 1014.5
20260503231652 74 23 5.0 11.0 0.00 0.31 0.31 92 1014.5
20260503231128 74 46 4.0 12.0 0.00 0.31 0.31 92 1014.5
20260503230645 74 69 4.0 12.0 0.00 0.31 0.31 93 1014.5
20260503230204 74 34 3.0 7.0 0.00 0.31 0.31 93 1014.4
20260503225651 74 65 2.0 7.0 0.00 0.31 0.31 93 1014.5
20260503225129 74 31 3.0 9.0 0.00 0.31 0.31 93 1014.5
20260503224628 74 56 4.0 9.0 0.00 0.31 0.31 93 1014.6
20260503224206 74 27 4.0 9.0 0.00 0.31 0.31 93 1014.5
20260503223644 74 78 3.0 9.0 0.00 0.31 0.31 93 1014.5
20260503223143 74 345 3.0 8.0 0.00 0.31 0.31 93 1014.4
20260503222641 74 46 3.0 9.0 0.00 0.31 0.31 93 1014.4
20260503222219 74 11 4.0 9.0 0.00 0.31 0.31 93 1014.4
20260503221636 74 360 2.0 10.0 0.00 0.31 0.31 93 1014.6
20260503221135 74 360 5.0 10.0 0.00 0.31 0.31 93 1014.6
20260503220732 74 40 3.0 12.0 0.02 0.31 0.31 93 1014.6
20260503220225 74 9 6.0 12.0 0.04 0.31 0.31 93 1014.6
20260503215649 74 41 2.0 11.0 0.06 0.31 0.31 94 1014.6
20260503215146 74 38 4.0 11.0 0.06 0.31 0.31 93 1014.6
20260503214642 74 28 2.0 8.0 0.06 0.31 0.31 94 1014.5
20260503214137 74 60 2.0 10.0 0.07 0.31 0.31 94 1014.4
20260503213634 75 13 3.0 10.0 0.07 0.31 0.31 94 1014.4
20260503213212 74 355 6.0 12.0 0.07 0.31 0.31 94 1014.5
20260503212709 74 19 7.0 12.0 0.07 0.31 0.31 93 1014.4
20260503212225 74 49 5.0 11.0 0.07 0.31 0.31 93 1014.5
20260503211700 74 70 3.0 11.0 0.07 0.31 0.31 93 1014.6
20260503211218 74 101 2.0 11.0 0.07 0.31 0.31 93 1014.9
20260503210712 74 23 3.0 10.0 0.05 0.29 0.29 92 1014.9
20260503210630 74 23 3.0 10.0 0.05 0.29 0.29 92 1014.9
20260503210128 75 26 5.0 9.0 0.03 0.27 0.27 92 1014.9
20260503205658 75 44 4.0 10.0 0.01 0.25 0.25 91 1015.0
20260503205135 75 342 2.0 10.0 0.01 0.25 0.25 91 1015.2
20260503204631 75 11 4.0 9.0 0.01 0.25 0.25 91 1015.0
20260503204249 76 79 2.0 8.0 0.00 0.24 0.24 91 1015.1
20260503204145 76 79 2.0 8.0 0.00 0.24 0.24 91 1015.1
20260503203704 76 82 2.0 6.0 0.00 0.24 0.24 91 1015.0
20260503203217 75 51 2.0 12.0 0.00 0.24 0.24 90 1015.3
20260503202652 75 42 5.0 12.0 0.00 0.24 0.24 90 1015.3
20260503202229 75 23 5.0 12.0 0.01 0.24 0.24 90 1015.3
20260503202147 75 23 5.0 12.0 0.01 0.24 0.24 90 1015.3
20260503201645 76 36 4.0 12.0 0.01 0.24 0.24 90 1015.3
20260503201223 76 14 4.0 12.0 0.01 0.24 0.24 90 1015.3
20260503200640 76 13 6.0 11.0 0.01 0.24 0.24 90 1015.0
20260503200138 76 24 5.0 13.0 0.01 0.24 0.24 91 1014.9
20260503195705 76 360 5.0 13.0 0.01 0.24 0.24 91 1015.1
20260503195139 76 49 4.0 12.0 0.01 0.24 0.24 91 1015.0
20260503194714 76 17 5.0 12.0 0.01 0.24 0.24 91 1015.0
20260503194249 76 47 3.0 10.0 0.01 0.24 0.24 91 1015.1
20260503193724 76 45 5.0 12.0 0.01 0.24 0.24 91 1015.0
20260503193158 76 344 4.0 13.0 0.01 0.24 0.24 91 1015.0
20260503192635 77 19 7.0 13.0 0.01 0.24 0.24 90 1014.9
20260503192153 77 5 4.0 10.0 0.00 0.23 0.23 91 1015.0
20260503191649 77 22 1.0 6.0 0.00 0.23 0.23 91 1015.1
20260503191205 77 355 4.0 10.0 0.00 0.23 0.23 90 1015.3
20260503190641 77 347 4.0 10.0 0.00 0.23 0.23 90 1015.1
20260503190137 77 38 7.0 10.0 0.00 0.23 0.23 90 1015.2
20260503185747 77 13 4.0 6.0 0.00 0.23 0.23 91 1015.6
20260503185202 77 41 2.0 6.0 0.01 0.23 0.23 91 1015.6
20260503184721 77 360 3.0 6.0 0.01 0.23 0.23 91 1015.7
20260503184136 77 53 2.0 8.0 0.03 0.23 0.23 91 1015.7
20260503183654 77 329 5.0 9.0 0.03 0.23 0.23 91 1016.0
20260503183229 77 333 5.0 9.0 0.04 0.23 0.23 90 1015.9
20260503182704 77 9 2.0 8.0 0.04 0.23 0.23 91 1016.2
20260503182235 77 5 0.0 0.0 0.04 0.23 0.23 91 1016.2
20260503182153 77 5 0.0 0.0 0.04 0.23 0.23 91 1016.2
20260503181634 76 5 0.0 0.0 0.04 0.23 0.23 91 1016.3
20260503181131 76 5 0.0 0.0 0.04 0.23 0.23 90 1016.4
20260503180628 77 5 0.0 2.0 0.04 0.23 0.23 90 1016.4
20260503180206 77 5 1.0 2.0 0.04 0.23 0.23 89 1016.5
20260503175653 77 5 0.0 4.0 0.04 0.23 0.23 89 1016.5
20260503175129 77 5 1.0 4.0 0.03 0.22 0.22 88 1016.6
20260503174646 77 5 1.0 5.0 0.03 0.22 0.22 88 1016.6
20260503174144 77 5 2.0 6.0 0.01 0.20 0.20 86 1016.7
20260503173642 78 5 2.0 6.0 0.01 0.20 0.20 86 1016.7
20260503173220 78 13 3.0 8.0 0.00 0.19 0.19 84 1016.5
20260503173138 78 13 3.0 8.0 0.00 0.19 0.19 84 1016.5
20260503172656 78 348 3.0 6.0 0.00 0.19 0.19 84 1016.5
20260503172131 78 30 3.0 8.0 0.00 0.19 0.19 84 1016.5
20260503171749 78 31 4.0 8.0 0.00 0.19 0.19 84 1016.5
20260503171204 78 31 1.0 9.0 0.00 0.19 0.19 84 1016.6
20260503170700 78 31 2.0 9.0 0.00 0.19 0.19 84 1016.5
20260503170135 78 5 3.0 8.0 0.00 0.19 0.19 84 1016.5
20260503160150 78 86 3.0 9.0 0.00 0.19 0.19 86 1016.6
20260503150706 77 319 3.0 9.0 0.00 0.19 0.19 88 1017.0
20260503150143 77 26 5.0 8.0 0.00 0.19 0.19 88 1016.9
20260503140140 75 22 1.0 4.0 0.00 0.19 0.19 94 1016.6
20260503131241 73 346 0.0 0.0 0.09 0.19 0.19 94 1016.3
20260503130655 73 346 0.0 0.0 0.17 0.19 0.19 94 1016.4
20260503130130 72 346 0.0 0.0 0.18 0.19 0.19 93 1016.3
20260503120143 73 333 2.0 5.0 0.01 0.01 0.01 90 1015.4
20260503110630 74 319 2.0 6.0 0.00 0.00 0.00 85 1014.5
20260503110133 74 333 4.0 6.0 0.00 0.00 0.00 85 1014.6
20260503100130 76 342 0.0 2.0 0.00 0.00 0.00 84 1013.9
20260503090132 76 336 0.0 4.0 0.00 0.00 0.00 83 1013.9
20260503081628 76 295 3.0 5.0 0.00 0.00 0.00 82 1013.9
20260503081129 76 306 1.0 3.0 0.00 0.00 0.00 82 1014.0
20260503080701 76 309 2.0 4.0 0.00 0.00 0.00 82 1014.0
20260503080237 76 287 1.0 8.0 0.00 0.00 0.00 82 1014.1
20260503072632 77 336 2.0 5.0 0.00 0.00 0.00 80 1013.2
20260503072128 77 293 3.0 5.0 0.00 0.00 0.00 79 1013.5
20260503071707 77 294 1.0 5.0 0.00 0.00 0.00 79 1013.8
20260503071144 77 299 3.0 10.0 0.00 0.00 0.00 79 1013.7
20260503070721 77 264 5.0 10.0 0.00 0.00 0.00 79 1013.5
20260503070136 77 311 4.0 6.0 0.00 0.00 0.00 80 1013.7
20260503060131 78 249 1.0 5.0 0.00 0.00 0.00 81 1013.0
20260503054714 78 227 1.0 5.0 0.00 0.00 0.00 80 1013.2
20260503054632 78 227 1.0 5.0 0.00 0.00 0.00 80 1013.2
20260503054229 78 225 1.0 5.0 0.00 0.00 0.00 80 1013.1
20260503053645 78 217 1.0 4.0 0.00 0.00 0.00 79 1013.2
20260503053140 78 222 2.0 5.0 0.00 0.00 0.00 79 1013.4
20260503052657 78 250 1.0 8.0 0.00 0.00 0.00 79 1013.6
20260503052235 78 242 1.0 8.0 0.00 0.00 0.00 79 1013.7
20260503051729 78 240 3.0 6.0 0.00 0.00 0.00 79 1013.8
20260503051647 78 240 3.0 6.0 0.00 0.00 0.00 79 1013.8
20260503051143 78 248 1.0 7.0 0.00 0.00 0.00 79 1013.8
20260503050701 79 245 2.0 8.0 0.00 0.00 0.00 79 1014.0
20260503050139 79 244 3.0 8.0 0.00 0.00 0.00 78 1014.1
20260503045647 79 242 2.0 5.0 0.00 0.00 0.00 78 1014.0
20260503045206 79 232 1.0 5.0 0.00 0.00 0.00 78 1014.0
20260503044701 79 249 3.0 8.0 0.00 0.00 0.00 78 1014.2
20260503044158 79 260 3.0 8.0 0.00 0.00 0.00 77 1014.3
20260503043636 79 246 3.0 6.0 0.00 0.00 0.00 77 1014.2
20260503043249 79 277 2.0 6.0 0.00 0.00 0.00 77 1014.4
20260503042642 79 263 3.0 7.0 0.00 0.00 0.00 77 1014.2
20260503042219 79 254 2.0 7.0 0.00 0.00 0.00 77 1014.1
20260503041655 80 257 1.0 7.0 0.00 0.00 0.00 77 1014.1
20260503041151 80 250 2.0 4.0 0.00 0.00 0.00 77 1014.2
20260503040728 80 250 2.0 4.0 0.00 0.00 0.00 77 1014.1
20260503040646 80 250 2.0 4.0 0.00 0.00 0.00 77 1014.1
20260503040245 80 250 2.0 4.0 0.00 0.00 0.00 77 1014.3
20260503035631 80 250 1.0 6.0 0.00 0.00 0.00 77 1014.3
20260503035230 80 250 3.0 6.0 0.00 0.00 0.00 77 1014.5
20260503035147 80 250 3.0 6.0 0.00 0.00 0.00 77 1014.5
20260503034724 80 269 0.0 2.0 0.00 0.00 0.00 77 1014.3
20260503034220 80 269 0.0 3.0 0.00 0.00 0.00 76 1014.0
20260503033715 80 269 0.0 3.0 0.00 0.00 0.00 76 1013.9
20260503033129 80 269 0.0 2.0 0.00 0.00 0.00 76 1013.8
20260503032747 80 269 1.0 2.0 0.00 0.00 0.00 76 1014.0
20260503032218 80 269 1.0 4.0 0.00 0.00 0.00 76 1013.9
20260503031638 80 269 0.0 4.0 0.00 0.00 0.00 76 1013.9
20260503031137 80 269 0.0 4.0 0.00 0.00 0.00 76 1013.8
20260503030715 80 269 1.0 4.0 0.00 0.00 0.00 76 1013.9
20260503030633 80 269 1.0 4.0 0.00 0.00 0.00 76 1013.9
20260503030132 80 269 3.0 4.0 0.00 0.00 0.00 75 1013.9
20260503025642 80 270 0.0 3.0 0.00 0.00 0.00 75 1013.8
20260503025139 81 268 1.0 3.0 0.00 0.00 0.00 75 1013.9
20260503024636 81 269 1.0 6.0 0.00 0.00 0.00 74 1013.9
20260503024133 81 290 2.0 5.0 0.00 0.00 0.00 74 1013.8
20260503023710 81 246 2.0 7.0 0.00 0.00 0.00 73 1013.9
20260503023628 81 246 2.0 7.0 0.00 0.00 0.00 73 1013.9
20260503023205 81 261 3.0 7.0 0.00 0.00 0.00 73 1013.9
20260503022721 81 270 3.0 8.0 0.00 0.00 0.00 72 1014.0
20260503022135 82 248 3.0 8.0 0.00 0.00 0.00 72 1014.0
20260503021632 82 273 3.0 8.0 0.00 0.00 0.00 71 1014.0
20260503021131 83 288 2.0 12.0 0.00 0.00 0.00 70 1013.8
20260503020628 83 262 4.0 12.0 0.00 0.00 0.00 69 1013.7
20260503020227 83 262 4.0 14.0 0.00 0.00 0.00 69 1013.7
20260503015655 84 248 4.0 14.0 0.00 0.00 0.00 68 1013.7
20260503015211 84 265 6.0 11.0 0.00 0.00 0.00 68 1013.6
20260503014724 84 229 4.0 13.0 0.00 0.00 0.00 67 1013.5
20260503014221 84 262 6.0 13.0 0.00 0.00 0.00 66 1013.4